Weather History for Hinckley, MN

Change the Weather History Date:

Sunday, April 20, 2014

  Actual Average (KJMR) Record (KJMR)
Temperature  
Mean Temperature 48 °F -  
Max Temperature 69 °F 58 °F 83 °F (1980)
Min Temperature 28 °F 33 °F 8 °F (1988)
Degree Days  
Heating Degree Days 16    
Moisture  
Dew Point 35 °F    
Average Humidity 68    
Maximum Humidity 100    
Minimum Humidity 28    
Precipitation  
Precipitation 0.00 in - - ()
Sea Level Pressure  
Sea Level Pressure 30.01 in    
Wind  
Wind Speed 1 mph (WSW)    
Max Wind Speed 7 mph    
Max Gust Speed -    
Visibility 7 miles    
Events Fog    
Averages and records for this station are not official NWS values.
T = Trace of Precipitation, MM = Missing Value Source: NWS Daily Summary

Daily Weather History Graph

Daily Weather History Graph

Search for Another Location

Airport:

Trip Planner

Search our weather history database for the weather conditions in past years. The results will help you decide how hot, cold, wet, or windy it might be!

Date:

Astronomy

Apr. 20, 2014 Rise Set
Actual Time 6:16 AM CDT 8:05 PM CDT
Civil Twilight 5:44 AM CDT 8:37 PM CDT
Nautical Twilight 5:05 AM CDT 9:16 PM CDT
Astronomical Twilight 4:23 AM CDT 9:59 PM CDT
Moon 12:52 AM CDT (4/20) 10:31 AM CDT (4/20)
Length of Visible Light 14h 52m
Length of Day
13h 48m
Waning Gibbous, 68% of the Moon is Illuminated
Apr 20
Waning Gibbous
Apr 22
Last Quarter
Apr 29
New
May 6
First Quarter
May 14
Full

Hourly Weather History & Observations

Time (CDT) Temp. Windchill Dew Point Humidity Pressure Visibility Wind Dir Wind Speed Gust Speed Precip Events Conditions
12:06 AM 33.8 °F - 33.8 °F 100% 30.01 in 7.0 mi Calm Calm - N/A   Clear
12:25 AM 33.8 °F - 33.8 °F 100% 30.01 in 4.0 mi Calm Calm - N/A   Clear
12:46 AM 32.0 °F - 32.0 °F 100% 30.01 in 4.0 mi Calm Calm - N/A   Clear
1:05 AM 32.0 °F - 32.0 °F 100% 30.01 in 2.5 mi Calm Calm - N/A   Clear
1:26 AM 32.0 °F - 32.0 °F 100% 30.01 in 3.0 mi Calm Calm - N/A   Scattered Clouds
1:46 AM 32.0 °F - 32.0 °F 100% 30.01 in 3.0 mi Calm Calm - N/A   Clear
2:05 AM 32.0 °F - 32.0 °F 100% 30.01 in 4.0 mi Calm Calm - N/A   Clear
2:26 AM 32.0 °F - 32.0 °F 100% 30.00 in 4.0 mi Calm Calm - N/A   Clear
2:46 AM 32.0 °F 28.7 °F 32.0 °F 100% 30.01 in 4.0 mi NNW 3.5 mph - N/A   Clear
3:05 AM 32.0 °F - 32.0 °F 100% 30.01 in 4.0 mi Calm Calm - N/A   Clear
3:26 AM 32.0 °F - 32.0 °F 100% 30.01 in 4.0 mi Calm Calm - N/A   Clear
3:46 AM 32.0 °F - 32.0 °F 100% 30.01 in 4.0 mi Calm Calm - N/A   Clear
4:06 AM 30.2 °F - 30.2 °F 100% 30.02 in 4.0 mi Calm Calm - N/A   Clear
4:26 AM 30.2 °F - 30.2 °F 100% 30.02 in 4.0 mi Calm Calm - N/A   Clear
4:45 AM 32.0 °F 25.6 °F 32.0 °F 100% 30.04 in 3.0 mi NNW 6.9 mph - N/A   Clear
5:25 AM 30.2 °F - 30.2 °F 100% 30.03 in 2.5 mi Calm Calm - N/A   Scattered Clouds
5:46 AM 30.2 °F - 30.2 °F 100% 30.04 in 1.8 mi Calm Calm - N/A   Mostly Cloudy
6:06 AM 30.2 °F - 30.2 °F 100% 30.05 in 0.2 mi Calm Calm - N/A Fog Light Freezing Fog
6:26 AM 28.4 °F - 28.4 °F 100% 30.05 in 0.2 mi Calm Calm - N/A Fog Light Freezing Fog
6:46 AM 30.2 °F - 30.2 °F 100% 30.06 in 0.2 mi Calm Calm - N/A Fog Light Freezing Fog
7:05 AM 30.2 °F - 30.2 °F 100% 30.06 in 0.2 mi Calm Calm - N/A Fog Light Freezing Fog
7:26 AM 30.2 °F - 30.2 °F 100% 30.05 in 1.8 mi Calm Calm - N/A   Overcast
7:45 AM 32.0 °F - 32.0 °F 100% 30.06 in 1.8 mi Calm Calm - N/A   Scattered Clouds
8:06 AM 33.8 °F - 33.8 °F 100% 30.06 in 1.8 mi Calm Calm - N/A   Mist
8:26 AM 35.6 °F - 35.6 °F 100% 30.05 in 3.0 mi Calm Calm - N/A   Clear
8:46 AM 41.0 °F - 39.2 °F 93% 30.05 in 10.0 mi Calm Calm - N/A   Clear
9:06 AM 44.6 °F 42.2 °F 37.4 °F 76% 30.05 in 10.0 mi ENE 4.6 mph - N/A   Clear
9:26 AM 46.4 °F - 37.4 °F 71% 30.05 in 10.0 mi Calm Calm - N/A   Clear
9:46 AM 48.2 °F - 37.4 °F 66% 30.05 in 10.0 mi NE 3.5 mph - N/A   Clear
10:06 AM 50.0 °F - 37.4 °F 62% 30.05 in 10.0 mi Calm Calm - N/A   Clear
10:26 AM 51.8 °F - 37.4 °F 58% 30.05 in 10.0 mi Calm Calm - N/A   Clear
10:46 AM 51.8 °F - 37.4 °F 58% 30.05 in 10.0 mi Calm Calm - N/A   Clear
11:26 AM 53.6 °F - 41.0 °F 62% 30.05 in 10.0 mi WSW 3.5 mph - N/A   Clear
11:46 AM 55.4 °F - 41.0 °F 58% 30.05 in 10.0 mi West 3.5 mph - N/A   Clear
12:06 PM 55.4 °F - 41.0 °F 58% 30.05 in 10.0 mi Calm Calm - N/A   Clear
12:26 PM 57.2 °F - 41.0 °F 55% 30.05 in 10.0 mi Calm Calm - N/A   Clear
12:46 PM 59.0 °F - 39.2 °F 48% 30.04 in 10.0 mi Calm Calm - N/A   Clear
1:06 PM 60.8 °F - 41.0 °F 48% 30.03 in 10.0 mi Calm Calm - N/A   Clear
1:26 PM 62.6 °F - 39.2 °F 42% 30.03 in 10.0 mi Calm Calm - N/A   Clear
1:46 PM 62.6 °F - 37.4 °F 39% 30.02 in 10.0 mi Calm Calm - N/A   Clear
2:06 PM 62.6 °F - 39.2 °F 42% 30.02 in 10.0 mi Calm Calm - N/A   Clear
2:26 PM 64.4 °F - 39.2 °F 40% 30.01 in 10.0 mi Calm Calm - N/A   Clear
2:46 PM 64.4 °F - 37.4 °F 37% 30.01 in 10.0 mi Calm Calm - N/A   Clear
3:06 PM 66.2 °F - 37.4 °F 35% 30.00 in 10.0 mi Calm Calm - N/A   Clear
3:26 PM 68.0 °F - 37.4 °F 33% 30.00 in 10.0 mi Calm Calm - N/A   Clear
3:46 PM 68.0 °F - 37.4 °F 33% 29.99 in 10.0 mi SW 5.8 mph - N/A   Clear
4:06 PM 68.0 °F - 35.6 °F 30% 29.99 in 10.0 mi SW 4.6 mph - N/A   Clear
4:26 PM 68.0 °F - 35.6 °F 30% 29.99 in 10.0 mi Calm Calm - N/A   Clear
5:06 PM 69.8 °F - 35.6 °F 28% 29.98 in 10.0 mi Calm Calm - N/A   Clear
5:26 PM 69.8 °F - 35.6 °F 28% 29.98 in 10.0 mi South 3.5 mph - N/A   Clear
5:46 PM 69.8 °F - 35.6 °F 28% 29.98 in 10.0 mi SSW 3.5 mph - N/A   Clear
6:06 PM 69.8 °F - 35.6 °F 28% 29.97 in 10.0 mi Calm Calm - N/A   Clear
6:26 PM 69.8 °F - 37.4 °F 31% 29.97 in 10.0 mi SW 3.5 mph - N/A   Clear
6:46 PM 68.0 °F - 39.2 °F 35% 29.97 in 10.0 mi Calm Calm - N/A   Clear
7:06 PM 68.0 °F - 35.6 °F 30% 29.97 in 10.0 mi Calm Calm - N/A   Clear
7:27 PM 68.0 °F - 37.4 °F 33% 29.96 in 10.0 mi Calm Calm - N/A   Clear
8:06 PM 60.8 °F - 37.4 °F 42% 29.96 in 10.0 mi Calm Calm - N/A   Clear
8:26 PM 59.0 °F - 39.2 °F 48% 29.96 in 10.0 mi Calm Calm - N/A   Clear
8:46 PM 57.2 °F - 37.4 °F 48% 29.96 in 10.0 mi Calm Calm - N/A   Clear
9:07 PM 51.8 °F - 39.2 °F 62% 29.96 in 10.0 mi Calm Calm - N/A   Clear
9:26 PM 50.0 °F - 37.4 °F 62% 29.96 in 10.0 mi Calm Calm - N/A   Clear
9:46 PM 46.4 °F - 37.4 °F 71% 29.97 in 10.0 mi Calm Calm - N/A   Clear
10:06 PM 48.2 °F - 35.6 °F 62% 29.96 in 10.0 mi Calm Calm - N/A   Clear
10:26 PM 44.6 °F - 35.6 °F 71% 29.95 in 10.0 mi Calm Calm - N/A   Clear
10:47 PM 44.6 °F - 35.6 °F 71% 29.95 in 10.0 mi Calm Calm - N/A   Clear
11:06 PM 42.8 °F - 35.6 °F 76% 29.96 in 10.0 mi Calm Calm - N/A   Clear
11:26 PM 46.4 °F 43.5 °F 33.8 °F 62% 29.96 in 10.0 mi East 5.8 mph - N/A   Clear
11:46 PM 46.4 °F - 33.8 °F 62% 29.96 in 10.0 mi Calm Calm - N/A   Clear